Location: Le Bourget
(44.4000°N, 6.7000°E)
Time: 12:46:58
(UTC+00:00)

Daily predictions for brighter satellites

Satellite Brightness Start Highest point End
(mag) Time Altitude Azimuth Time Altitude Azimuth Time Altitude Azimuth
NOAA 6 4.0 16:20:16 10° SSE 16:25:23 71° ENE 16:30:31 10° N
Okean O Rocket 2.2 16:21:34 10° SE 16:25:31 35° ENE 16:29:31 10° N
Cosmos 1782 4.2 16:23:16 10° SE 16:26:08 19° E 16:29:01 10° NE
ISS -2.2 16:27:06 10° WNW 16:29:52 23° N 16:32:39 10° NE
CRYOSAT 2 4.5 16:25:02 10° NNE 16:29:53 58° E 16:34:43 10° S
H-2A R/B 3.0 16:26:06 10° S 16:29:56 75° WSW 16:33:50 10° NNW
Cosmos 1633 Rocket 3.4 16:26:54 10° N 16:31:05 43° ENE 16:35:13 10° SSE
Cosmos 1933 3.6 16:27:45 10° SSE 16:31:38 47° E 16:35:34 10° NNE
Meteor 2-12 Rocket 4.5 16:29:07 10° N 16:35:18 82° E 16:41:25 10° S
Cosmos 2218 Rocket 4.2 16:31:38 10° N 16:37:34 48° ENE 16:43:29 10° SSE
Cosmos 1867 4.2 16:32:50 10° SW 16:38:10 56° NW 16:43:34 10° NNE
Cosmos 2366 rocket 4.2 16:32:35 10° N 16:38:32 47° ENE 16:44:24 10° SSE
Meteor 1-25 Rocket 4.3 16:33:48 10° N 16:39:22 57° ENE 16:44:59 10° SSE
ERS-2 3.6 16:36:47 10° NE 16:39:24 18° E 16:42:00 10° SE
Envisat 3.1 16:36:33 10° SSE 16:41:38 83° WSW 16:46:44 10° NNW
Lacrosse 5 rocket 1.9 16:43:19 10° WSW 16:46:50 42° NW 16:50:15 10° NE
Cosmos 773 Rocket 4.0 16:42:37 10° S 16:47:49 68° ESE 16:53:06 10° NNE
SL-23 DEB 4.1 16:44:50 10° SW 16:48:12 58° SE 16:52:39 13° ENE
YAOGAN 6 2.8 16:47:09 10° S 16:50:45 74° WSW 16:54:21 10° NNW
Cosmos 1606 3.7 16:49:35 10° SSW 16:53:22 49° WNW 16:57:09 10° N
Cosmos 2297 4.0 16:49:19 10° NNW 16:55:00 74° WSW 17:00:41 10° SSE
AQUARIUS 4.1 16:51:25 10° SSE 16:55:52 72° ENE 17:00:22 10° N
FengYun 1-2 T 4.3 16:50:29 10° SSE 16:55:52 57° ENE 17:01:16 10° N
OE (NEXTSAT) 4.4 16:52:31 10° W 16:55:57 65° N 16:58:30 17° E
SL-16 R/B 2.5 16:52:16 10° SSW 16:57:53 69° WNW 17:03:34 10° NNE
CZ-4B R/B 1.9 16:56:26 12° NE 16:59:00 33° E 17:01:54 10° SSE
Landsat 5 4.3 16:55:42 10° N 17:00:06 59° WNW 17:04:33 10° SSW
BREEZE-M DEB (TANK) 1.7 16:59:52 10° WSW 17:02:27 66° NNW 17:03:26 25° NE
USA 215 4.1 16:59:20 14° ENE 17:04:08 32° SE 17:09:52 10° S
SMAP 3.2 17:00:14 10° SSE 17:04:53 82° WSW 17:09:34 10° NNW
Cosmos 1500 4.2 17:03:23 10° NNE 17:06:36 25° ENE 17:09:47 10° SE
YAOGAN 1 4.0 17:09:19 18° NE 17:09:19 18° NE 17:11:49 10° NNE
USA 238 DEB 4.4 17:03:46 10° S 17:09:20 30° ESE 17:13:06 18° ENE
USA 238 4.5 17:03:53 10° S 17:09:26 30° ESE 17:13:10 18° ENE
Cosmos 1656 Rocket 4.3 17:05:52 10° N 17:11:00 34° NE 17:16:02 10° ESE
Cosmos 1151 Rocket 3.1 17:07:28 10° SSW 17:11:45 77° W 17:16:02 10° N
Cosmos 1470 Rocket 3.4 17:09:19 10° N 17:13:38 70° E 17:17:56 10° SSE
Cosmos 1515 Rocket 3.5 17:15:25 10° S 17:19:44 65° E 17:24:08 10° NNE
Cosmos 2263 4.3 17:14:30 10° NNW 17:19:58 50° ENE 17:25:23 10° SE
CZ-2C R/B 3.6 17:16:24 10° SE 17:20:45 31° ENE 17:24:57 10° N
SL-8 Rocket 4.4 17:16:31 10° NNW 17:22:43 67° W 17:28:56 10° S
Cosmos 482 Debris 3.5 17:21:37 10° WNW 17:23:21 42° SW 17:23:45 35° S
Cosmos 1238 Rocket 3.8 17:22:06 10° NNE 17:25:46 31° ENE 17:30:05 10° SE
COSMO-SKYMED 1 2.7 17:23:06 14° NNE 17:26:42 51° E 17:30:54 10° S
Cosmos 1689 Rocket 3.9 17:29:01 19° SE 17:29:01 19° SE 17:30:12 10° SSE
USA 281 3.6 17:21:48 10° ESE 17:27:48 40° NE 17:33:49 10° NNW
X-37B 0.5 17:25:29 10° WSW 17:28:39 82° SSE 17:29:28 47° E
YAOGAN 3 4.5 17:24:31 10° SSE 17:28:50 67° ENE 17:33:11 10° N
Nadezhda 3 Rocket 4.2 17:23:04 10° SSE 17:29:05 48° E 17:35:10 10° NNE
SAR-Lupe-4 3.8 17:29:13 34° NE 17:30:15 45° E 17:33:42 10° S
Meteor 2-6 Rocket 4.3 17:26:46 10° SSE 17:32:08 51° E 17:37:14 11° NNE
Helios 1A Rocket 3.9 17:33:25 27° NE 17:33:25 27° NE 17:35:49 10° N
Cosmos 2228 Rocket 3.4 17:28:05 10° SSE 17:32:21 43° E 17:34:29 25° NE
Meteor 1-4 Rocket 3.2 17:30:13 10° SSW 17:33:45 55° WNW 17:37:14 10° N
H-2A R/B 2.7 17:35:17 30° ENE 17:35:36 30° ENE 17:40:02 10° N
Cosmos 1812 3.0 17:32:33 10° SSE 17:36:11 43° E 17:36:35 42° ENE
USA 267 3.8 17:34:11 25° ENE 17:37:17 40° NNE 17:43:17 10° NW
Cosmos 1939 Rocket 2.6 17:34:14 10° SSE 17:38:07 83° ENE 17:42:04 10° N
Cosmos 1821 Rocket 4.0 17:32:19 10° N 17:38:30 59° ENE 17:44:43 10° SSE
CZ-4 R/B 4.4 17:35:51 10° SSE 17:39:55 59° ENE 17:44:00 10° N
CZ-4 R/B 2.1 17:41:27 33° NNE 17:41:27 33° NNE 17:44:13 10° N
Meteor 1-11 Rocket 4.2 17:36:05 10° N 17:41:30 39° ENE 17:46:58 10° SE
BREEZE-M DEB (TANK) 3.1 17:39:22 10° SW 17:42:42 28° SSE 17:42:53 28° SE
PSLV R/B 4.0 17:42:20 44° ENE 17:43:03 50° E 17:46:59 10° S
CSL-04 Rocket 4.5 17:44:05 29° NE 17:44:05 29° NE 17:47:43 10° N
Cosmos 44 Rocket 3.6 17:38:28 10° NNW 17:43:29 48° NE 17:45:09 35° E
Cosmos 1933 Rocket 3.6 17:39:13 10° N 17:43:42 83° W 17:48:09 10° S
IRS-1C Rocket 4.0 17:39:10 10° SSE 17:44:25 77° ENE 17:49:43 10° NNW
Cosmos 546 4.5 17:41:41 10° WSW 17:45:30 88° NNW 17:46:15 57° ENE
SAR-Lupe-1 3.9 17:46:35 55° NE 17:47:14 71° ESE 17:50:48 10° S
Lacrosse 4 Rocket 3.1 17:45:27 10° SSE 17:46:59 18° SSE 17:46:59 18° SSE
Cosmos 1680 Rocket 3.8 17:44:12 10° S 17:49:12 46° ESE 17:50:18 40° ENE
SKYMED 3 4.5 17:47:24 17° NNE 17:50:45 88° WNW 17:55:05 10° SSW
SL-24 R/B 3.5 17:49:33 40° NNE 17:50:48 82° E 17:54:27 10° S
Cosmos 1603 3.6 17:47:48 10° SSW 17:53:26 89° WNW 17:56:56 24° NNE
CZ-2D R/B 3.1 17:51:10 10° SSE 17:54:58 90° WSW 17:58:51 10° NNW
Cosmos 1943 3.1 17:51:08 10° SSW 17:56:48 86° ESE 17:59:58 28° NNE
Cosmos 2369 Rocket 2.7 17:54:06 10° NNW 17:59:43 61° WSW 18:05:14 10° S
Cosmos 1943 Rocket 3.7 17:55:46 10° NW 18:00:48 36° WSW 18:05:51 10° S
Okean O Rocket 4.1 17:58:26 10° SSW 18:01:56 23° W 18:05:28 10° NW
Meteor 1-5 Rocket 4.2 17:56:04 10° N 18:02:00 89° ENE 18:07:43 10° S
Okean-O 2.4 17:58:53 10° SSE 18:03:18 76° ENE 18:07:44 10° N
Cosmos 1461 3.9 17:59:19 10° S 18:02:44 37° SE 18:02:44 37° SE
ARGOS 4.4 18:08:31 26° NNE 18:08:31 26° NNE 18:11:05 10° N
CENTAUR R/B 2.6 18:01:23 10° S 18:06:55 49° ESE 18:07:44 47° E
ISS -1.8 18:04:16 10° NW 18:05:55 22° NNW 18:05:55 22° NNW
Cosmos 2112 Rocket 4.0 18:04:34 10° S 18:09:44 60° ESE 18:09:53 59° E
Cosmos 2056 Rocket 4.4 18:06:09 10° N 18:09:29 33° NNE 18:09:29 33° NNE
ERS-2 3.9 18:10:45 17° NNW 18:13:00 31° WNW 18:16:16 10° SW
SKYMED 2 4.4 18:11:44 18° N 18:14:45 49° WNW 18:18:56 10° SW
NOSS 3-2 (C) 3.4 18:09:38 10° SSW 18:15:01 54° ESE 18:15:09 54° ESE
Cosmos 1869 Rocket 3.7 18:13:57 10° N 18:22:43 11° S 18:22:55 10° S
BREEZE-M DEB (TANK) 3.1 18:12:16 10° WSW 18:19:59 82° SSW 18:19:59 82° SSW
Meteor 1-27 Rocket 3.7 18:15:22 10° S 18:20:11 60° SE 18:20:11 60° SE
Meteor 1-10 Rocket 4.3 18:19:40 10° SSW 18:25:18 73° WNW 18:28:49 24° N
Lacrosse 5 rocket 3.7 18:24:49 10° NW 18:25:53 13° NNW 18:25:53 13° NNW
Cosmos 371 Rocket 4.5 18:25:24 10° NNW 18:28:01 32° N 18:28:01 32° N
CZ-4B R/B 4.4 18:29:34 10° NW 18:30:57 13° WNW 18:32:24 10° W
NOSS 3-2 (A) 3.6 18:34:46 10° SW 18:40:24 66° NW 18:41:27 56° N
YAOGAN 1 4.3 18:46:29 28° NW 18:46:29 28° NW 18:48:46 10° NNW
Cosmos 1535 Rocket 4.4 18:39:49 10° N 18:45:57 81° W 18:52:04 10° S
USA 215 3.2 18:46:42 68° NNE 18:47:32 79° NW 18:54:04 10° WSW
MOS 1 Rocket 4.4 18:52:43 36° NNW 18:54:26 49° WNW 18:59:34 10° SW
USA 238 DEB 3.9 18:53:18 10° SW 18:59:48 61° NW 19:00:34 57° NNW
USA 238 3.9 18:53:23 10° SW 18:59:54 61° NW 19:00:39 58° NNW
USA 281 4.1 19:05:57 10° S 19:12:11 45° WSW 19:18:28 10° NW
H-2A R/B 3.5 19:15:55 34° WNW 19:15:55 34° WNW 19:19:41 10° NNW
CZ-4 R/B 4.4 19:17:28 13° WNW 19:17:28 13° WNW 19:18:16 10° NW
USA 267 3.7 19:21:33 55° NW 19:21:33 55° NW 19:26:29 10° NW
CENTAUR R/B 4.2 19:52:02 10° WSW 19:54:58 27° W 19:54:58 27° W
